Tracking 26442 objects as of 7-Dec-2022
HD Live streaming from Space Station
objects crossing your sky now

NOAA 16 DEB

Track NOAA 16 DEB now!
10-day predictions


NORAD ID: 41259
Int'l Code: 2000-055FK
Perigee: 679.7 km
Apogee: 796.6 km
Inclination: 98.8 °
Period: 99.4 minutes
Semi major axis: 7109 km
RCS: Unknown
Launch date: September 21, 2000
Source: United States (US)
Launch site: AIR FORCE WESTERN TEST RANGE (AFWTR)

Note: This is SATELLITE DEBRIS
aabbcc
Your satellite tracking list
Your tracking list is empty




NASA's NSSDC Master Catalog

Two Line Element Set (TLE):
1 41259U 00055FK  22340.44244164  .00009620  00000-0  24735-2 0  9991
2 41259  98.8343 151.0845 0082202  67.3629 293.6231 14.48357822365429
Source of the keplerian elements: AFSPC